Location: Niagara
(43.2500°N, 79.0670°W)
Time: 03:38:31
(UTC-04:00)

Envisat - Pass Details

Date: 16 October 2017
Orbit: 764 x 766 km, 98.2° (Epoch: 22 October)

Event Time Altitude Azimuth Distance (km) Brightness Sun altitude
Exits shadow 20:46:16 56° 32° (NNE) 909 3.2 -25.3°
Drops below altitude 10° 20:50:34 10° 353° (N) 2,311 5.7 -26.0°
Sets 20:52:54 0° 351° (N) 3,241 6.5 -26.5°
